Погода в Кулибарове

Россия / Вологодская область     59°43′43″N   43°36′56″E
темп.,
°C
ветер,
м/с
пор.,
м/с
влажн.,
%
обл.,
%
осадки,
мм/ч
давл.,
гПа
погр.,
м
13 апреля, вт
вт1300:00+5ююв41396100 0.0 1034362
03:00+4ююв41395100 0.0 1032385
06:00+4ююв41296100 0.0 1031397
09:00+6ю41195100 0.0 1030413
12:00+10ю4985100 0.0 1028503
15:00+14ю41276100 0.0 1026730
18:00+12ю41281100 0.0 1025540
21:00+10ю41490100 0.0 1025391
14 апреля, ср
ср1400:00+8ю31387100 0.0 1024278
03:00+6ю3108937 0.0 1024184
06:00+7ю3128027 0.0 1023229
09:00+12ю411655 0.0 1022412
12:00+16ююз51152100 0.0 1021935
15:00+16ююз51052100 0.0 1020986
18:00+14ю41158100 0.0 1019446
21:00+10ююз41376100 0.0 1019320
15 апреля, чт
чт1500:00+9ююз31275100 0.0 1019287
03:00+7зюз238985 0.0 101954
06:00+6с2697100 0.0 1020235
09:00+7ссв4586100 0.0 1021515
12:00+5ссв4889100 0.3 1023504
15:00+4св3893100 2.2 1024465
18:00+5всв2791100 0.1 1024596
21:00+3ссв288988 0.1 1025252
16 апреля, пт
пт1600:00+1ссв3108271 0.0 1026292
03:00−1ссв298726 0.0 1026210
06:000ссв28830 0.0 1027261
09:00+5св46555 0.0 1027908
12:00+7ссв35445 0.0 10271374
15:00+8ссв46395 0.0 10281599
18:00+7с37485 0.0 1028510
21:00+2ссз226856 0.0 102930
17 апреля, сб
сб1700:00+1с311742 0.0 1031463
03:000с410785 0.0 1033594
06:00−1с411775 0.0 1034717
09:00+2ссв58542 0.0 1035909
12:00+6ссв58295 0.0 10361569
15:00+7ссв46273 0.0 10361735
18:00+5с25385 0.0 1036359
21:00+1сз22565 0.0 103613